Wind_Speed
21 21 20 19 18 18 17 17 16 15 14 15 15 14 12 12 14 14 14 14 13 13 13 14 14 13 12 12 13 12 11 12 13 13 13 13 13 13 13 13 14 14 14 14
20 20 19 19 19 18 18 18 17 16 15 15 16 15 13 13 14 14 15 14 14 14 14 14 14 14 14 14 14 14 14 13 13 13 14 13 14 14 13 13 13 14 14 14
20 19 20 20 19 18 19 19 17 16 16 17 17 16 14 14 15 16 16 16 17 16 16 15 14 15 15 15 15 15 15 15 14 14 14 14 15 15 14 14 14 15 15 16
19 20 21 20 19 18 19 18 17 17 18 18 18 19 16 15 17 18 17 17 17 16 15 15 14 15 15 15 15 15 15 16 15 14 14 14 15 15 14 14 15 16 16 17
19 20 21 21 19 18 18 19 19 19 20 20 19 20 17 17 18 18 18 18 17 16 15 16 15 15 16 16 15 16 16 16 16 15 15 15 15 16 16 15 16 16 16 17
20 20 21 21 20 20 18 20 21 21 22 22 20 21 19 18 18 18 19 19 18 16 16 17 17 17 17 18 17 16 16 16 16 16 15 15 16 16 16 16 16 16 16 16
21 21 21 21 21 21 21 21 22 22 22 21 20 21 20 19 19 19 19 19 19 17 17 18 19 18 18 19 18 16 17 16 16 16 16 16 17 17 17 16 16 17 17 17
21 21 21 21 22 22 22 21 21 22 22 21 21 21 21 20 19 19 19 18 18 18 18 19 19 19 19 20 19 18 17 17 16 16 17 16 16 17 17 17 17 18 19 19
22 22 22 22 21 21 22 22 22 23 23 23 23 23 22 20 18 18 18 18 19 19 18 18 19 20 20 19 19 17 17 17 17 16 16 17 17 17 17 18 19 19 19 18
22 23 23 22 22 22 22 21 23 24 24 26 25 24 23 20 18 18 17 18 18 18 18 19 19 19 20 20 19 18 18 18 18 17 17 17 17 18 18 18 19 19 19 19
23 24 24 24 23 22 22 23 24 25 25 26 26 25 22 20 19 18 18 19 19 18 18 19 19 18 18 18 19 19 18 18 17 18 17 17 18 18 18 18 19 20 20 19
24 25 26 25 25 25 24 25 25 27 27 27 27 26 22 21 21 20 20 20 19 19 20 19 19 18 17 17 17 18 18 18 18 17 17 18 18 18 18 18 19 19 20 19
25 26 27 26 27 27 28 27 27 28 29 29 28 26 24 24 22 22 22 21 21 20 20 19 19 19 19 19 19 19 19 19 18 18 18 19 18 18 18 18 18 18 18 18
27 28 29 28 27 28 29 29 28 28 29 29 28 27 26 26 25 23 23 22 21 20 20 19 20 20 20 21 20 20 19 20 19 20 20 19 18 18 17 17 17 17 18 18
28 29 29 29 29 29 29 29 30 30 30 29 29 28 27 27 27 25 24 23 22 21 21 21 21 21 21 21 21 20 20 19 20 20 19 18 18 18 17 17 17 17 17 18
28 29 29 28 29 29 30 29 29 29 29 30 29 28 27 27 27 27 26 24 23 23 22 22 22 22 22 21 21 21 21 20 20 20 19 19 19 18 17 17 17 17 17 17
27 28 29 29 29 30 30 28 28 30 30 30 29 28 28 28 28 29 27 26 24 24 24 24 24 24 23 23 22 22 21 21 21 21 20 20 20 19 18 17 17 17 17 17
26 26 28 29 30 32 29 28 28 29 30 30 28 28 28 28 29 29 28 27 25 25 25 25 25 24 24 23 23 22 22 22 22 22 20 20 20 19 18 18 18 18 18 18
23 24 26 28 30 30 28 27 27 29 28 27 28 28 28 28 28 28 28 26 25 26 26 25 25 24 24 23 23 23 23 22 22 21 21 20 20 19 19 18 18 18 18 18
22 22 24 27 27 27 26 26 26 28 29 27 28 28 28 28 29 27 28 27 27 27 27 26 26 26 25 24 23 23 22 21 20 21 20 20 19 19 18 18 18 19 18 18
21 21 23 24 26 26 24 24 25 27 27 26 26 26 28 29 28 27 29 28 27 27 26 25 25 25 25 24 23 22 22 21 21 21 20 20 19 19 19 18 18 19 18 17
21 21 23 23 24 24 23 24 25 25 25 26 26 26 27 28 27 27 28 28 27 26 25 25 25 24 23 22 21 22 22 22 21 22 21 21 21 21 20 19 19 19 18 18
22 22 22 23 23 24 24 23 24 25 25 26 26 26 27 27 28 27 27 27 26 26 25 24 24 24 23 23 22 22 22 23 23 22 22 21 22 22 22 21 20 19 18 18
22 22 22 21 21 22 23 23 24 25 26 26 25 25 26 26 27 27 25 26 26 25 24 24 24 24 24 23 22 21 22 22 22 22 22 22 22 22 22 22 21 19 19 18
21 21 22 22 21 22 22 23 24 25 25 26 24 24 25 26 27 27 25 25 26 25 25 24 24 24 24 23 22 21 21 21 21 22 22 22 22 22 22 22 22 21 19 19
20 21 21 21 22 22 23 24 25 24 24 25 25 24 24 25 26 26 25 25 25 26 25 25 24 24 24 24 23 22 22 21 21 21 22 21 21 21 21 21 21 21 20 19
Wind_Direction
216 217 217 217 219 220 224 231 234 231 233 242 250 255 260 268 267 273 278 281 284 289 295 297 300 298 295 294 289 287 290 295 296 295 296 293 296 300 302 304 306 304 303 299
217 213 213 215 218 221 224 228 232 229 232 241 248 254 260 264 269 274 277 281 283 287 292 294 295 295 294 293 294 291 293 293 296 295 296 294 294 297 299 300 302 302 303 302
216 210 212 214 217 222 225 229 232 235 235 240 249 255 257 262 266 267 270 277 281 283 287 290 289 288 289 290 292 292 292 292 292 292 293 294 292 295 298 298 299 300 300 300
216 213 216 217 220 225 228 230 234 237 238 242 249 254 253 261 265 268 273 277 280 283 284 285 289 285 283 287 289 290 294 295 293 290 290 293 293 293 294 296 297 299 300 300
217 217 221 223 225 227 231 231 234 238 243 244 251 258 256 258 264 270 276 278 278 279 282 282 285 283 280 283 285 283 287 292 294 291 288 290 292 291 291 292 296 300 303 304
219 220 225 227 229 229 231 231 235 239 243 247 251 257 258 259 265 271 273 274 276 278 280 279 279 278 277 279 279 281 282 287 291 288 285 287 291 292 291 293 296 298 301 304
223 223 225 226 230 232 233 234 237 240 244 248 251 257 259 259 265 267 269 273 276 279 280 279 276 275 276 275 276 280 285 286 290 286 283 284 286 289 291 293 295 298 298 300
227 224 224 229 231 235 236 236 240 245 246 247 249 255 256 258 260 261 268 274 277 280 279 276 275 276 276 276 276 280 280 284 288 288 285 284 286 286 287 292 295 296 296 297
231 231 227 228 231 234 235 237 241 247 249 249 251 253 256 257 258 260 266 272 274 274 274 275 277 277 277 276 274 275 277 284 288 291 290 285 287 286 287 290 293 295 295 296
235 233 229 232 235 235 237 240 242 245 248 251 253 253 256 260 263 260 261 269 271 270 272 277 278 275 276 275 274 272 276 283 286 289 293 290 289 289 290 292 294 296 294 294
236 236 232 231 234 235 235 237 242 246 249 252 255 254 255 259 263 264 266 269 268 271 274 277 277 275 272 272 274 274 279 283 285 288 292 293 292 292 292 292 293 295 296 292
241 241 236 232 233 236 236 236 239 243 247 250 252 254 255 258 261 264 268 269 273 273 273 276 276 272 276 274 274 275 280 282 284 288 292 293 292 291 289 290 292 295 296 291
242 243 241 238 236 236 237 239 241 244 246 249 252 253 253 257 261 265 268 270 272 271 271 271 273 271 272 272 271 273 278 280 284 291 293 294 293 291 289 289 292 294 297 295
244 245 245 244 240 238 238 240 243 244 246 248 252 256 256 258 261 263 266 269 268 270 272 270 272 271 270 272 271 273 278 279 282 288 291 292 291 291 291 290 291 293 296 298
247 246 245 244 242 240 240 241 243 243 246 250 254 257 259 261 263 263 267 268 267 270 273 273 274 274 273 273 273 275 277 280 283 286 289 289 291 291 291 291 293 294 295 299
248 248 244 242 243 242 242 243 244 244 247 251 254 256 258 261 261 264 266 267 269 272 275 276 275 273 273 274 276 276 277 280 282 283 287 289 288 287 287 291 294 295 297 300
250 249 247 245 243 244 245 245 246 246 247 251 253 255 257 257 260 264 265 266 268 269 272 274 274 273 273 274 275 276 275 277 279 281 282 285 288 286 285 289 292 294 295 298
252 251 250 249 247 246 246 245 247 247 247 248 251 253 256 259 261 263 264 265 265 268 269 271 273 272 272 272 272 273 274 274 276 278 280 282 285 284 283 288 290 291 293 293
253 254 252 251 250 249 247 247 248 249 248 247 248 252 257 260 261 262 263 262 265 267 269 271 271 270 270 270 271 273 272 272 274 276 277 279 280 283 285 285 287 288 290 291
254 252 251 251 250 250 249 249 250 251 252 249 250 252 256 260 261 261 263 263 266 265 268 269 268 270 271 271 273 272 270 269 272 273 275 276 277 280 285 286 286 286 287 288
253 252 251 252 252 251 250 252 252 252 255 253 256 257 257 259 261 262 262 262 263 266 267 266 266 268 269 271 271 270 269 269 269 270 273 274 277 278 281 283 284 285 284 284
254 254 250 251 252 253 252 253 253 253 255 257 259 260 259 259 261 262 263 261 261 263 265 266 266 268 269 270 272 272 269 269 268 269 272 273 275 276 278 280 281 283 282 285
254 254 252 251 252 253 254 254 254 256 258 260 263 262 261 259 260 261 263 262 262 263 265 266 266 266 268 271 272 271 271 270 268 269 271 272 273 274 277 278 277 279 281 283
256 256 255 253 254 255 255 255 255 256 258 259 259 261 260 260 261 261 262 262 262 264 264 263 264 266 268 269 269 270 270 270 269 269 270 270 272 273 274 275 275 275 277 276
256 256 255 255 256 256 256 256 256 260 261 258 258 259 259 259 259 260 260 261 262 264 264 263 263 264 265 266 267 269 270 269 269 269 270 271 272 273 273 273 273 272 271 273
255 256 257 260 261 260 257 257 259 262 264 261 259 259 259 258 259 259 260 262 262 261 262 263 264 263 264 264 265 267 267 268 269 268 268 269 271 270 272 272 271 269 266 267
Height
5849 5853 5856 5858 5861 5863 5864 5866 5867 5869 5871 5872 5872 5874 5874 5875 5875 5876 5875 5875 5874 5874 5874 5874 5873 5872 5871 5870 5870 5869 5869 5868 5867 5865 5864 5863 5862 5861 5860 5858 5857 5855 5854 5852
5846 5849 5853 5854 5856 5859 5860 5862 5864 5866 5867 5868 5869 5870 5871 5872 5872 5872 5872 5872 5872 5872 5871 5870 5870 5869 5868 5867 5866 5865 5865 5865 5864 5863 5862 5861 5860 5858 5857 5856 5854 5852 5851 5849
5842 5847 5848 5850 5852 5854 5856 5858 5860 5862 5863 5864 5865 5866 5867 5868 5868 5868 5867 5868 5868 5868 5868 5868 5866 5865 5865 5865 5864 5863 5862 5861 5860 5860 5858 5857 5856 5855 5854 5852 5851 5849 5847 5845
5839 5842 5844 5846 5848 5850 5852 5855 5857 5858 5859 5860 5861 5861 5863 5864 5864 5864 5864 5864 5864 5864 5863 5863 5863 5861 5861 5861 5860 5859 5858 5857 5857 5856 5855 5853 5852 5851 5850 5849 5847 5845 5844 5842
5836 5838 5840 5842 5845 5846 5848 5851 5852 5853 5854 5855 5856 5856 5859 5859 5859 5860 5860 5860 5860 5859 5859 5858 5858 5857 5856 5856 5856 5856 5855 5854 5853 5852 5851 5850 5849 5847 5846 5844 5843 5841 5840 5838
5832 5834 5836 5839 5841 5842 5844 5846 5848 5848 5849 5850 5852 5852 5853 5855 5855 5855 5855 5855 5855 5855 5855 5854 5853 5853 5853 5852 5852 5851 5851 5850 5849 5848 5847 5846 5844 5843 5842 5840 5839 5837 5835 5833
5827 5829 5831 5834 5836 5838 5839 5841 5843 5843 5844 5845 5847 5846 5848 5850 5850 5850 5850 5850 5850 5850 5850 5849 5849 5849 5848 5848 5847 5847 5846 5845 5845 5843 5842 5841 5840 5839 5838 5836 5834 5832 5831 5829
5822 5825 5827 5829 5830 5832 5834 5836 5838 5839 5839 5841 5841 5841 5843 5844 5844 5845 5845 5845 5845 5845 5845 5844 5844 5843 5843 5842 5842 5842 5842 5841 5840 5839 5838 5836 5835 5834 5833 5831 5829 5828 5826 5824
5817 5820 5823 5824 5825 5828 5829 5830 5833 5833 5834 5835 5835 5836 5837 5837 5839 5839 5839 5840 5840 5840 5839 5839 5838 5838 5837 5837 5837 5837 5837 5837 5836 5834 5833 5832 5830 5829 5828 5826 5825 5823 5820 5818
5811 5814 5817 5819 5821 5822 5824 5826 5827 5827 5828 5828 5829 5830 5832 5832 5833 5834 5834 5834 5835 5835 5835 5834 5833 5832 5831 5831 5832 5832 5832 5832 5831 5830 5829 5827 5826 5824 5822 5821 5819 5817 5815 5813
5806 5808 5811 5813 5815 5817 5819 5820 5820 5821 5822 5823 5823 5826 5827 5827 5828 5828 5829 5830 5830 5830 5830 5829 5827 5827 5827 5827 5827 5827 5827 5827 5826 5825 5823 5822 5820 5819 5817 5816 5814 5812 5810 5807
5800 5802 5804 5807 5810 5811 5812 5813 5815 5816 5817 5817 5817 5821 5821 5822 5823 5823 5824 5824 5824 5824 5824 5824 5822 5822 5822 5822 5821 5822 5822 5821 5820 5819 5817 5816 5815 5813 5812 5810 5808 5806 5804 5801
5793 5795 5797 5801 5805 5805 5806 5807 5808 5809 5810 5811 5811 5815 5815 5816 5817 5818 5818 5819 5819 5818 5818 5818 5818 5817 5818 5818 5817 5817 5817 5816 5815 5813 5812 5811 5809 5808 5806 5805 5803 5801 5798 5796
5787 5788 5791 5794 5796 5797 5798 5800 5801 5802 5803 5804 5805 5807 5809 5810 5810 5811 5812 5813 5813 5813 5813 5813 5813 5813 5813 5812 5812 5812 5811 5810 5809 5808 5807 5805 5804 5802 5801 5799 5798 5796 5793 5791
5780 5781 5783 5785 5788 5789 5791 5793 5794 5795 5796 5798 5799 5800 5802 5803 5804 5805 5805 5806 5807 5807 5807 5807 5807 5807 5807 5806 5806 5806 5806 5805 5804 5802 5801 5800 5799 5798 5796 5794 5793 5791 5789 5786
5772 5774 5776 5778 5780 5781 5783 5785 5788 5789 5790 5791 5793 5794 5796 5796 5797 5798 5798 5799 5800 5800 5801 5801 5801 5801 5801 5801 5800 5800 5800 5799 5798 5797 5796 5795 5794 5793 5791 5790 5788 5786 5784 5782
5765 5767 5768 5770 5772 5773 5776 5780 5781 5782 5783 5785 5786 5788 5789 5789 5790 5791 5792 5793 5793 5794 5794 5794 5794 5794 5794 5794 5794 5794 5793 5793 5792 5792 5791 5789 5788 5788 5786 5784 5783 5781 5779 5777
5758 5759 5760 5762 5765 5766 5772 5772 5773 5774 5776 5778 5779 5780 5781 5782 5783 5783 5784 5785 5786 5787 5787 5787 5787 5787 5787 5786 5786 5786 5786 5786 5785 5785 5784 5783 5783 5782 5781 5779 5777 5776 5774 5772
5751 5752 5753 5754 5755 5758 5762 5764 5765 5766 5768 5770 5771 5772 5774 5774 5775 5775 5776 5777 5778 5779 5779 5779 5779 5779 5779 5779 5779 5779 5779 5778 5778 5778 5777 5777 5777 5776 5774 5773 5772 5770 5769 5767
5744 5745 5746 5747 5748 5750 5755 5757 5757 5759 5759 5762 5763 5764 5765 5766 5767 5769 5768 5769 5770 5771 5771 5771 5771 5771 5771 5772 5772 5772 5772 5772 5772 5771 5771 5770 5770 5769 5769 5768 5767 5765 5764 5762
5737 5738 5739 5740 5740 5742 5747 5749 5750 5752 5753 5754 5754 5755 5757 5758 5759 5761 5760 5761 5761 5762 5763 5763 5763 5764 5764 5764 5764 5765 5765 5765 5765 5765 5765 5764 5763 5763 5763 5762 5761 5760 5758 5757
5731 5732 5733 5734 5734 5738 5739 5741 5742 5743 5744 5745 5746 5748 5749 5751 5751 5752 5752 5752 5753 5754 5756 5756 5756 5756 5757 5757 5757 5757 5758 5758 5758 5758 5758 5757 5757 5757 5756 5756 5755 5754 5753 5752
5724 5726 5726 5728 5730 5730 5731 5733 5734 5735 5737 5738 5739 5740 5741 5742 5743 5744 5745 5745 5746 5747 5748 5749 5749 5750 5750 5750 5750 5750 5750 5750 5751 5751 5751 5750 5750 5750 5749 5749 5748 5748 5747 5746
5718 5718 5720 5721 5722 5723 5724 5725 5726 5728 5729 5730 5731 5732 5733 5733 5735 5736 5737 5738 5739 5739 5740 5741 5742 5743 5743 5743 5743 5743 5743 5743 5743 5743 5744 5743 5743 5743 5743 5742 5742 5741 5741 5740
5711 5712 5713 5714 5716 5717 5718 5719 5720 5721 5722 5723 5723 5724 5725 5726 5727 5728 5728 5730 5730 5731 5732 5733 5734 5735 5736 5736 5736 5736 5736 5736 5736 5736 5736 5736 5736 5736 5735 5735 5735 5735 5735 5734
5705 5706 5707 5708 5709 5710 5711 5712 5712 5713 5714 5714 5715 5716 5717 5718 5719 5719 5720 5721 5722 5723 5724 5726 5727 5728 5728 5729 5729 5729 5729 5729 5729 5729 5729 5729 5729 5729 5728 5728 5727 5727 5728 5728